London, United Kingdom

9:39 AM BST on September 25, 2017 (GMT +0100)
Heathrow

Weather History for EGLL - January, 2013

Change the Weather History Date:

Wednesday, January 30, 2013

  Actual Average Record
Temperature  
Mean Temperature 49 °F -  
Max Temperature 53 °F 46 °F 55 °F (2000)
Min Temperature 44 °F 35 °F 30 °F (2004)
Degree Days  
Heating Degree Days 16    
Moisture  
Dew Point 42 °F    
Average Humidity 74    
Maximum Humidity 94    
Minimum Humidity 45    
Precipitation  
Precipitation 0.02 in - - ()
Sea Level Pressure  
Sea Level Pressure 29.75 in    
Wind  
Wind Speed 18 mph ()    
Max Wind Speed 36 mph    
Max Gust Speed 47 mph    
Visibility 6.7 miles    
Events Rain    
Averages and records for this station are not official NWS values.
T = Trace of Precipitation, MM = Missing Value Source: Averaged Metar Reports

Daily Weather History Graph

Daily Weather History Graph

Search for Another Location

Airport or City:

Trip Planner

Search our weather history database for the weather conditions in past years. The results will help you decide how hot, cold, wet, or windy it might be!

Date:

Astronomy

Jan. 30, 2013 Rise Set
Actual Time 7:42 AM GMT 4:48 PM GMT
Civil Twilight 7:06 AM GMT 5:24 PM GMT
Nautical Twilight 6:26 AM GMT 6:04 PM GMT
Astronomical Twilight 5:47 AM GMT 6:43 PM GMT
Moon 9:04 PM GMT (1/30) 8:33 AM GMT (1/30)
Length of Visible Light 10h 18m
Length of Day
9h 05m
Waning Gibbous, 89% of the Moon is Illuminated
Jan 30
Waning Gibbous
Feb 3
Last Quarter
Feb 10
New
Feb 17
First Quarter
Feb 25
Full

Hourly Weather History & Observations

Time (GMT) Temp. Windchill Dew Point Humidity Pressure Visibility Wind Dir Wind Speed Gust Speed Precip Events Conditions
12:20 AM 53.6 °F - 51.8 °F 94% 29.53 in 3.1 mi SW 19.6 mph - N/A Rain Light Rain
12:50 AM 53.6 °F - 51.8 °F 94% 29.53 in 3.1 mi SW 16.1 mph - N/A Rain Light Rain
1:20 AM 53.6 °F - 51.8 °F 94% 29.53 in 3.1 mi SW 16.1 mph - N/A Rain Light Rain
1:50 AM 53.6 °F - 51.8 °F 94% 29.53 in 6.2 mi SW 19.6 mph - N/A Rain Light Rain
2:20 AM 53.6 °F - 51.8 °F 94% 29.53 in 5.0 mi SW 19.6 mph - N/A Rain Light Rain
2:50 AM 54 °F - 52 °F 90% 29.52 in 4 mi SW 18.4 mph - - Rain Rain
2:50 AM 53.6 °F - 51.8 °F 94% 29.53 in 6.2 mi SW 19.6 mph - N/A Rain Light Rain
3:20 AM 53.6 °F - 51.8 °F 94% 29.53 in 1.8 mi West 23.0 mph - N/A Rain Heavy Rain
3:50 AM 50.0 °F - 46.4 °F 87% 29.56 in 6.2 mi WNW 10.4 mph - N/A Rain Light Rain
4:20 AM 48.2 °F - 46.4 °F 93% 29.56 in 6.2 mi West 10.4 mph - N/A Rain Light Rain
4:50 AM 48.2 °F - 46.4 °F 93% 29.56 in 6.2 mi West 8.1 mph - N/A Rain Light Rain
5:20 AM 48.2 °F - 46.4 °F 93% 29.56 in 6.2 mi SW 9.2 mph - N/A Rain Light Rain
5:50 AM 48.2 °F - 46.4 °F 93% 29.56 in 6.2 mi WSW 6.9 mph - N/A Rain Light Rain
6:20 AM 48.2 °F - 46.4 °F 93% 29.59 in - SW 12.7 mph - N/A   Clear
6:50 AM 48.2 °F - 44.6 °F 87% 29.59 in 6.2 mi WSW 10.4 mph - N/A   Partly Cloudy
7:20 AM 48.2 °F - 44.6 °F 87% 29.62 in 6.2 mi WSW 13.8 mph - N/A   Partly Cloudy
7:50 AM 48.2 °F - 44.6 °F 87% 29.62 in 6.2 mi WSW 15.0 mph - N/A   Scattered Clouds
8:20 AM 48.2 °F - 44.6 °F 87% 29.65 in 6.2 mi WSW 13.8 mph - N/A   Scattered Clouds
8:50 AM 49 °F - 45 °F 80% 29.66 in 40 mi WSW 15.0 mph - -   Scattered Clouds
8:50 AM 50.0 °F - 44.6 °F 82% 29.65 in 6.2 mi WSW 13.8 mph - N/A   Partly Cloudy
9:20 AM 50.0 °F - 44.6 °F 82% 29.65 in 6.2 mi WSW 16.1 mph - N/A   Partly Cloudy
9:50 AM 51.8 °F - 44.6 °F 76% 29.68 in 6.2 mi WSW 18.4 mph - N/A   Scattered Clouds
10:20 AM 50.0 °F - 44.6 °F 82% 29.68 in 6.2 mi WSW 20.7 mph - N/A   Scattered Clouds
10:50 AM 51.8 °F - 42.8 °F 71% 29.71 in 6.2 mi West 20.7 mph 34.5 mph N/A   Partly Cloudy
11:20 AM 51.8 °F - 41.0 °F 67% 29.71 in 6.2 mi West 24.2 mph - N/A   Partly Cloudy
11:50 AM 52 °F - 42 °F 58% 29.73 in 19 mi West 24.2 mph - -   Scattered Clouds
11:50 AM 51.8 °F - 41.0 °F 67% 29.74 in 6.2 mi West 21.9 mph - N/A   Scattered Clouds
12:20 PM 51.8 °F - 41.0 °F 67% 29.74 in 6.2 mi West 26.5 mph - N/A   Scattered Clouds
12:50 PM 51.8 °F - 39.2 °F 62% 29.74 in 6.2 mi West 23.0 mph - N/A   Scattered Clouds
1:20 PM 51.8 °F - 37.4 °F 58% 29.77 in 6.2 mi West 27.6 mph - N/A   Scattered Clouds
1:50 PM 53.6 °F - 37.4 °F 54% 29.77 in 6.2 mi West 29.9 mph 43.7 mph N/A   Scattered Clouds
2:20 PM 51.8 °F - 35.6 °F 54% 29.80 in 6.2 mi West 24.2 mph - N/A   Scattered Clouds
2:50 PM 52 °F - 37 °F 45% 29.80 in 14 mi West 28.8 mph - -   Scattered Clouds
2:50 PM 51.8 °F - 35.6 °F 54% 29.80 in 6.2 mi West 26.5 mph - N/A   Scattered Clouds
3:20 PM 51.8 °F - 35.6 °F 54% 29.80 in 6.2 mi West 35.7 mph 47.2 mph N/A   Partly Cloudy
3:50 PM 50.0 °F - 35.6 °F 58% 29.83 in 6.2 mi West 29.9 mph 44.9 mph N/A   Partly Cloudy
4:20 PM 50.0 °F - 35.6 °F 58% 29.83 in 6.2 mi West 27.6 mph - N/A   Partly Cloudy
4:50 PM 50.0 °F - 35.6 °F 58% 29.83 in 6.2 mi West 27.6 mph - N/A   Partly Cloudy
5:20 PM 50.0 °F - 35.6 °F 58% 29.86 in 6.2 mi West 28.8 mph - N/A   Partly Cloudy
5:50 PM 48 °F - 37 °F 56% 29.88 in 12 mi WSW 27.6 mph - -  
5:50 PM 48.2 °F - 35.6 °F 62% 29.89 in 6.2 mi West 27.6 mph 39.1 mph N/A   Partly Cloudy
6:20 PM 48.2 °F - 37.4 °F 66% 29.89 in 6.2 mi West 26.5 mph - N/A   Partly Cloudy
6:50 PM 48.2 °F - 35.6 °F 62% 29.92 in 6.2 mi West 28.8 mph - N/A   Partly Cloudy
7:20 PM 50.0 °F - 37.4 °F 62% 29.95 in - West 26.5 mph - N/A   Clear
7:50 PM 48.2 °F - 37.4 °F 66% 29.95 in 6.2 mi West 25.3 mph - N/A   Partly Cloudy
8:20 PM 48.2 °F - 37.4 °F 66% 29.95 in - West 24.2 mph - N/A   Clear
8:50 PM 46 °F - 37 °F 62% 29.98 in 11 mi WSW 20.7 mph - -  
8:50 PM 48.2 °F - 37.4 °F 66% 29.98 in - West 20.7 mph - N/A   Clear
9:20 PM 46.4 °F 39.0 °F 37.4 °F 71% 29.98 in - WSW 19.6 mph 31.1 mph N/A   Clear
9:50 PM 46.4 °F 38.5 °F 37.4 °F 71% 30.01 in - WSW 21.9 mph 33.4 mph N/A   Clear
10:20 PM 46.4 °F 39.0 °F 37.4 °F 71% 30.01 in - WSW 19.6 mph - N/A   Clear
10:50 PM 46.4 °F 39.2 °F 37.4 °F 71% 30.01 in - WSW 18.4 mph - N/A   Clear
11:20 PM 46.4 °F 39.0 °F 37.4 °F 71% 30.04 in - WSW 19.6 mph - N/A   Clear
11:50 PM 45 °F - 39 °F 72% 30.06 in 12 mi WSW 19.6 mph - -   Partly Cloudy
11:50 PM 44.6 °F 37.8 °F 37.4 °F 76% 30.04 in - WSW 15.0 mph - N/A   Clear